Location: *
(37.5724°S, 58.0067°E)
Time: 11:45:20
(UTC+00:00)

SL-16 R/B - Pass Details

Date: 26 September 2020
Orbit: 842 x 847 km, 71.0° (Epoch: 29 October)

Event Time Altitude Azimuth Distance (km) Brightness Sun altitude
Rises 23:22:53 0° 193° (SSW) 3,438 5.5 -28.7°
Reaches altitude 10° 23:25:39 10° 183° (S) 2,497 4.9 -28.2°
Maximum altitude 23:30:42 31° 121° (ESE) 1,452 4.0 -27.3°
Drops below altitude 10° 23:35:44 10° 59° (ENE) 2,476 5.0 -26.4°
Sets 23:38:26 0° 48° (NE) 3,404 5.7 -25.9°
